[[{"header":{"parameterUnit":"m.s-1","parameterCategory":1,"la1":30.2991,"la2":30.254,"lo1":-89.0895,"lo2":-89.0444,"dy":0.0017,"dx":0.0017,"nx":28,"ny":28,"refTime":"2023-11-23T03:00:00:Z","depth":0,"parameterNumber":2,"parameterNumberName":"U-component_of_WINDS"},"data":[0,0,0,0,0,0,0,0,0,0,0,0,0,0,0,0,0,0,0,0,0,0,0,0,0,0,0,0,0,0,0,0,0,0,0,0,0,0,0,0,0,0,0,0,0,0,0,0,0,0,0,0,0,0,0,0,0,0,-2.0337,-2.0337,0,-2.0317,-2.0316,-2.0316,-2.024,-2.0238,-2.0236,-2.0235,-2.0216,-2.0217,-2.0218,0,0,0,0,0,0,0,0,0,0,0,0,0,-2.0312,-2.0313,-2.0337,-2.0337,-2.0336,-2.0317,-2.0316,-2.0316,-2.024,-2.0238,-2.0236,-2.0234,-2.0216,-2.0217,-2.0219,0,0,0,0,0,0,0,0,0,0,0,0,0,-2.0311,-2.0313,-2.0337,-2.0296,-2.0292,-2.0317,-2.0316,-2.0316,-2.0241,-2.0238,-2.0235,-2.0233,-2.0215,-2.0217,-2.0219,-2.0282,0,0,-2.0224,-2.0225,0,0,0,0,0,0,0,0,-2.0311,-2.0312,-2.0302,-2.0299,-2.0295,-2.0278,-2.0301,-2.0305,-2.0241,-2.026,-2.0235,-2.0232,-2.0239,-2.0239,-2.0241,-2.0281,-2.028,-2.0224,-2.0225,-2.0226,-2.0226,0,0,0,0,0,0,0,-2.0311,-2.0312,-2.0329,-2.0302,-2.0298,-2.0279,-2.0276,-2.0301,-2.0265,-2.0258,-2.0253,-2.0251,-2.0236,-2.0239,-2.024,-2.028,-2.0224,-2.0226,-2.0227,-2.0227,-2.0372,-2.0374,0,0,0,0,0,0,-2.0317,-2.0313,-2.0329,-2.0328,-2.0296,-2.0282,-2.0278,-2.0286,-2.0264,-2.0258,-2.0254,-2.0248,-2.0238,-2.0238,-2.0239,-2.0311,-2.0226,-2.0228,-2.0228,-2.0369,-2.0372,-2.0375,0,0,0,0,0,0,-2.0316,-2.0319,-2.033,-2.0319,-2.0319,-2.0285,-2.0294,-2.0287,-2.029,-2.026,-2.0254,-2.0263,-2.0236,-2.0236,-2.0272,-2.031,-2.0228,-2.023,-2.0365,-2.037,-2.0374,-2.0458,0,0,0,0,0,0,-2.0316,-2.0319,-2.0342,-2.032,-2.032,-2.0363,-2.0297,-2.0288,-2.0292,-2.0285,-2.0268,-2.0262,-2.0234,-2.027,-2.0273,-2.0311,-2.0231,-2.0362,-2.0367,-2.0372,-2.0451,-2.0464,-2.0475,0,0,0,0,0,-2.0315,-2.0367,-2.0344,-2.0346,-2.0348,-2.0365,-2.0365,-2.0331,-2.0296,-2.0319,-2.0301,-2.0263,-2.0305,-2.0274,-2.0277,-2.0316,-2.0359,-2.0366,-2.0372,-2.0446,-2.0462,-2.0475,0,0,0,0,0,0,-2.0395,-2.0363,-2.0337,-2.0383,-2.0378,-2.0352,-2.0381,-2.0348,-2.0353,-2.0346,-2.0303,-2.03,-2.0342,-2.0332,-2.0298,-2.0376,-2.0326,-2.0333,-2.0381,-2.0396,-2.0407,-2.0409,-2.0233,0,0,0,0,0,-2.0418,-2.0435,-2.0406,-2.0449,-2.0448,-2.0415,-2.0421,-2.0395,-2.0388,-2.0385,-2.0369,-2.0364,-2.0376,-2.0385,-2.0395,-2.0449,-2.0445,-2.0478,-2.049,-2.05,-2.0507,-2.0536,-2.055,-2.0396,-2.0396,-2.0396,0,0,-2.0466,-2.0451,-2.0463,-2.0465,-2.0457,-2.0476,-2.0414,-2.0436,-2.0449,-2.0389,-2.0421,-2.0409,-2.0401,-2.0447,-2.0466,-2.044,-2.0548,-2.0508,-2.0516,-2.0517,-2.0544,-2.0558,-2.0571,-2.04,-2.0399,-2.0399,0,0,-2.0562,-2.0552,-2.0587,-2.0581,-2.057,-2.0548,-2.0557,-2.0537,-2.0526,-2.0558,-2.0513,-2.0529,-2.055,-2.0547,-2.0548,-2.0643,-2.0609,-2.0647,-2.071,-2.0739,-2.0751,-2.0761,-2.0796,-2.0809,-2.0654,-2.0655,-2.0655,0,-2.0623,-2.0649,-2.061,-2.0635,-2.0637,-2.0582,-2.0618,-2.0614,-2.0608,-2.0611,-2.0582,-2.0608,-2.0599,-2.0643,-2.0666,-2.0668,-2.0677,-2.0649,-2.0752,-2.0762,-2.0771,-2.0804,-2.0817,-2.0659,-2.0659,-2.0658,-2.0658,0,-2.0724,-2.0743,-2.0772,-2.0767,-2.0772,-2.0803,-2.0769,-2.078,-2.0753,-2.0735,-2.0768,-2.0755,-2.0761,-2.0769,-2.0744,-2.081,-2.0794,-2.0759,-2.0708,-2.0792,-2.0822,-2.0834,-2.0666,-2.0664,-2.0663,-2.0662,0,0,-2.0871,-2.0843,-2.0855,-2.0852,-2.0836,-2.085,-2.0878,-2.0883,-2.0894,-2.0891,-2.0914,-2.0934,-2.0901,-2.0903,-2.0876,-2.0901,-2.0979,-2.0863,-2.0862,-2.0886,-2.1052,-2.1079,-2.1094,-2.0955,-2.0958,-2.0959,-2.1053,0,-2.0963,-2.1009,-2.0975,-2.1027,-2.1044,-2.0993,-2.1017,-2.1011,-2.0994,-2.1007,-2.0989,-2.1004,-2.0959,-2.096,-2.0982,-2.0964,-2.1011,-2.0957,-2.0978,-2.0979,-2.0982,-2.1109,-2.1137,-2.1226,-2.1064,-2.1066,-2.1067,0,-2.1077,-2.1078,-2.1133,-2.1114,-2.1119,-2.1142,-2.1144,-2.1157,-2.1149,-2.1135,-2.1137,-2.1104,-2.1131,-2.108,-2.1118,-2.1082,-2.1088,-2.1081,-2.1083,-2.1084,-2.1029,-2.1114,-2.1253,-2.1267,-2.1085,-2.1084,-2.1083,0,-2.1179,-2.1195,-2.1229,-2.1228,-2.1207,-2.1224,-2.1216,-2.1205,-2.1211,-2.1213,-2.1217,-2.1223,-2.1226,-2.1232,-2.1202,-2.1167,-2.1244,-2.119,-2.1234,-2.1235,-2.1252,-2.1252,-2.1395,-2.1256,-2.1256,-2.1255,-2.1255,0,-2.1286,-2.1321,-2.1275,-2.1296,-2.1334,-2.1295,-2.1334,-2.1321,-2.1312,-2.133,-2.1286,-2.1305,-2.1264,-2.1278,-2.1255,-2.129,-2.1292,-2.1282,-2.1276,-2.1286,-2.1288,-2.129,-2.1284,-2.1259,-2.1258,-2.1257,-2.1257,0,-2.1406,-2.1377,-2.1411,-2.1388,-2.1383,-2.1412,-2.1393,-2.1412,-2.1392,-2.1417,-2.142,-2.139,-2.1404,-2.1375,-2.1386,-2.137,-2.142,-2.1403,-2.1423,-2.1418,-2.1463,-2.146,-2.1614,-2.1632,-2.1481,-2.1482,-2.1484,0,-2.1477,-2.1502,-2.1482,-2.1491,-2.1485,-2.15,-2.1505,-2.1468,-2.1475,-2.1469,-2.1489,-2.15,-2.1507,-2.1533,-2.1512,-2.1521,-2.1505,-2.1558,-2.1506,-2.1516,-2.1506,-2.1505,-2.1508,-2.1569,-2.1571,-2.1572,-2.1574,0,-2.1605,-2.1589,-2.1598,-2.1602,-2.161,-2.1611,-2.161,-2.162,-2.158,-2.1591,-2.1605,-2.161,-2.1621,-2.1633,-2.1637,-2.1629,-2.1596,-2.159,-2.1601,-2.1612,-2.1623,-2.1618,-2.1453,-2.1587,-2.1586,-2.1585,-2.1584,-2.1583,-2.1703,-2.1723,-2.1712,-2.1724,-2.1719,-2.1719,-2.1736,-2.1718,-2.1729,-2.1735,-2.1712,-2.1732,-2.1724,-2.1725,-2.1721,-2.1736,-2.1713,-2.1728,-2.1732,-2.1736,-2.1744,-2.162,-2.1737,-2.1736,-2.1736,-2.1736,-2.1735,0,-2.1829,-2.1819,-2.183,-2.183,-2.1839,-2.1805,-2.1802,-2.1813,-2.183,-2.1825,-2.1832,-2.1849,-2.1861,-2.1841,-2.1849,-2.1866,-2.185,-2.1869,-2.1868,-2.1867,-2.1764,-2.1755,-2.1881,-2.1881,-2.1881,-2.1881,-2.1881,-2.1881,-2.1896,-2.1929,-2.1913,-2.1943,-2.1933,-2.1952,-2.1953,-2.1953,-2.1948,-2.1969,-2.1978,-2.1965,-2.1954,-2.1961,-2.1971,-2.1965,-2.197,-2.1995,-2.1984,-2.1888,-2.1874,-2.186,-2.1851,-2.1996,-2.1996,-2.2085,-2.2085,-2.2086]},{"header":{"parameterUnit":"m.s-1","parameterCategory":1,"la1":30.2991,"la2":30.254,"lo1":-89.0895,"lo2":-89.0444,"dy":0.0017,"dx":0.0017,"nx":28,"ny":28,"refTime":"2023-11-23T03:00:00:Z","depth":0,"parameterNumber":3,"parameterNumberName":"V-component_of_WINDS"},"data":[0,0,0,0,0,0,0,0,0,0,0,0,0,0,0,0,0,0,0,0,0,0,0,0,0,0,0,0,0,0,0,0,0,0,0,0,0,0,0,0,0,0,0,0,0,0,0,0,0,0,0,0,0,0,0,0,0,0,-1.0043,-1.0044,0,-1.01,-1.01,-1.0101,-1.0109,-1.0108,-1.0108,-1.0107,-1.0166,-1.0168,-1.017,0,0,0,0,0,0,0,0,0,0,0,0,0,-0.9942,-0.9944,-1.0043,-1.0044,-1.0045,-1.01,-1.01,-1.0101,-1.0109,-1.0108,-1.0107,-1.0107,-1.0165,-1.0168,-1.017,0,0,0,0,0,0,0,0,0,0,0,0,0,-0.9991,-0.9945,-1.0043,-1.0055,-1.0057,-1.01,-1.0101,-1.0101,-1.0109,-1.0108,-1.0107,-1.0107,-1.0164,-1.0167,-1.017,-1.0205,0,0,-1.018,-1.0181,0,0,0,0,0,0,0,0,-0.9988,-0.9995,-1.0053,-1.0054,-1.0056,-1.0096,-1.0086,-1.0136,-1.0109,-1.0089,-1.0107,-1.0106,-1.0143,-1.0148,-1.0161,-1.0208,-1.0211,-1.018,-1.0182,-1.0183,-1.0184,0,0,0,0,0,0,0,-0.9985,-0.9992,-1.0066,-1.0053,-1.0056,-1.0058,-1.0064,-1.0096,-1.012,-1.0091,-1.0091,-1.0098,-1.0144,-1.0158,-1.0162,-1.0212,-1.018,-1.0183,-1.0185,-1.0186,-1.0291,-1.0291,0,0,0,0,0,0,-0.9979,-0.999,-1.0064,-1.0067,-1.002,-1.006,-1.0067,-1.0084,-1.012,-1.0124,-1.0099,-1.0098,-1.0153,-1.0158,-1.0164,-1.0207,-1.0183,-1.0186,-1.0188,-1.029,-1.0291,-1.0292,0,0,0,0,0,0,-0.9977,-0.9986,-1.0062,-1.0029,-1.0038,-1.0063,-1.0082,-1.0086,-1.0099,-1.0126,-1.013,-1.0108,-1.0152,-1.016,-1.0195,-1.021,-1.0188,-1.019,-1.0289,-1.029,-1.0291,-1.0294,0,0,0,0,0,0,-0.9974,-0.9985,-0.9999,-1.0029,-1.004,-1.0092,-1.0083,-1.0088,-1.0104,-1.0104,-1.0135,-1.014,-1.0152,-1.019,-1.0198,-1.0213,-1.0193,-1.0287,-1.0289,-1.0291,-1.0293,-1.0296,-1.0298,0,0,0,0,0,-0.997,-0.9997,-0.9999,-1.0008,-1.0058,-1.0092,-1.0099,-1.0112,-1.0106,-1.0119,-1.0136,-1.0139,-1.0207,-1.0194,-1.0203,-1.0219,-1.0287,-1.0289,-1.0291,-1.0292,-1.0295,-1.0298,0,0,0,0,0,0,-0.9969,-1.0002,-1.0004,-1.0042,-1.0064,-1.0094,-1.0112,-1.0115,-1.014,-1.0139,-1.0155,-1.0162,-1.0197,-1.0211,-1.0197,-1.0255,-1.0246,-1.025,-1.0244,-1.0247,-1.025,-1.0245,-1.0195,0,0,0,0,0,-0.9972,-0.9998,-1.0025,-1.0056,-1.0067,-1.0087,-1.0103,-1.0111,-1.0135,-1.0145,-1.0164,-1.0188,-1.0214,-1.0231,-1.0257,-1.0295,-1.0302,-1.0311,-1.0313,-1.0315,-1.0318,-1.0339,-1.0343,-1.0299,-1.0299,-1.0299,0,0,-0.9981,-1.0002,-1.0017,-1.0056,-1.0074,-1.01,-1.0095,-1.0123,-1.0142,-1.0149,-1.0184,-1.0199,-1.0226,-1.0262,-1.0279,-1.0276,-1.0332,-1.0318,-1.0319,-1.0321,-1.0342,-1.0346,-1.035,-1.03,-1.03,-1.03,0,0,-1.001,-1.0028,-1.0055,-1.0074,-1.0102,-1.0115,-1.0121,-1.015,-1.016,-1.0195,-1.02,-1.0224,-1.0269,-1.0288,-1.0304,-1.0339,-1.0342,-1.0347,-1.036,-1.038,-1.0383,-1.0386,-1.0399,-1.0403,-1.035,-1.035,-1.035,0,-1.0017,-1.0056,-1.0069,-1.0096,-1.0113,-1.012,-1.0148,-1.0165,-1.02,-1.0211,-1.0207,-1.0263,-1.0282,-1.0323,-1.0332,-1.0344,-1.0352,-1.0344,-1.0382,-1.0385,-1.0388,-1.04,-1.0405,-1.035,-1.035,-1.035,-1.035,0,-1.0063,-1.009,-1.0109,-1.0142,-1.0161,-1.0188,-1.0206,-1.0223,-1.0229,-1.0243,-1.0278,-1.0301,-1.0331,-1.0342,-1.0348,-1.0383,-1.038,-1.0378,-1.037,-1.0393,-1.0404,-1.0409,-1.0351,-1.0351,-1.0351,-1.0351,0,0,-1.0093,-1.0132,-1.0139,-1.0154,-1.0185,-1.0206,-1.0233,-1.0263,-1.0278,-1.0301,-1.0325,-1.0363,-1.0361,-1.0379,-1.0387,-1.0405,-1.0431,-1.0401,-1.0402,-1.0406,-1.0471,-1.0473,-1.0478,-1.0433,-1.0434,-1.0435,-1.0469,0,-1.0125,-1.0174,-1.0187,-1.0229,-1.0254,-1.026,-1.0284,-1.0306,-1.0319,-1.0342,-1.0357,-1.0384,-1.0379,-1.039,-1.0408,-1.0424,-1.0445,-1.0422,-1.0456,-1.0457,-1.0449,-1.0484,-1.0486,-1.0517,-1.0474,-1.0474,-1.0475,0,-1.017,-1.0194,-1.0238,-1.0265,-1.0276,-1.0298,-1.0325,-1.0347,-1.0372,-1.038,-1.0399,-1.0407,-1.0435,-1.0425,-1.0465,-1.0449,-1.0464,-1.0474,-1.0475,-1.048,-1.0467,-1.0489,-1.0527,-1.0532,-1.0482,-1.0482,-1.0481,0,-1.0187,-1.023,-1.0263,-1.0275,-1.0308,-1.0323,-1.0337,-1.036,-1.0377,-1.0401,-1.0412,-1.044,-1.0455,-1.0476,-1.049,-1.0481,-1.0529,-1.052,-1.0537,-1.0536,-1.0547,-1.0546,-1.0588,-1.0556,-1.0556,-1.0556,-1.0555,0,-1.0222,-1.0249,-1.0271,-1.0291,-1.0321,-1.0335,-1.0364,-1.0379,-1.04,-1.0422,-1.0429,-1.0451,-1.0468,-1.0492,-1.0503,-1.0534,-1.0541,-1.0549,-1.0552,-1.0548,-1.0547,-1.0558,-1.0557,-1.0557,-1.0557,-1.0556,-1.0556,0,-1.0246,-1.0262,-1.0298,-1.0325,-1.0333,-1.0354,-1.0378,-1.0397,-1.041,-1.0439,-1.0446,-1.0467,-1.0495,-1.0511,-1.0547,-1.0554,-1.0589,-1.0591,-1.0581,-1.0583,-1.0599,-1.0597,-1.065,-1.0657,-1.0619,-1.062,-1.062,0,-1.0268,-1.0289,-1.0318,-1.0334,-1.0348,-1.0374,-1.039,-1.0405,-1.0422,-1.0451,-1.0467,-1.0495,-1.0519,-1.0563,-1.0582,-1.0609,-1.0611,-1.0628,-1.0615,-1.0611,-1.0612,-1.061,-1.0613,-1.063,-1.063,-1.0631,-1.0631,0,-1.0304,-1.0311,-1.0335,-1.0362,-1.0382,-1.0404,-1.0425,-1.0438,-1.0456,-1.0475,-1.0503,-1.0521,-1.0557,-1.0585,-1.0614,-1.0629,-1.0633,-1.0634,-1.064,-1.0637,-1.063,-1.0634,-1.0587,-1.0633,-1.0633,-1.0633,-1.0633,-1.0633,-1.0328,-1.0347,-1.0371,-1.0397,-1.0415,-1.0435,-1.0454,-1.047,-1.0494,-1.0524,-1.0531,-1.0561,-1.0584,-1.0623,-1.0638,-1.0662,-1.0659,-1.0667,-1.0669,-1.0671,-1.0671,-1.0626,-1.0667,-1.0667,-1.0667,-1.0667,-1.0667,0,-1.0365,-1.0381,-1.0405,-1.0435,-1.0456,-1.0457,-1.0481,-1.0498,-1.0525,-1.0546,-1.0569,-1.0601,-1.0629,-1.0649,-1.0676,-1.0692,-1.0694,-1.0698,-1.0698,-1.0701,-1.0672,-1.0665,-1.0696,-1.0696,-1.0696,-1.0696,-1.0696,-1.0696,-1.0387,-1.0419,-1.0428,-1.0468,-1.0484,-1.0513,-1.0526,-1.0545,-1.0562,-1.0598,-1.062,-1.0633,-1.0654,-1.0683,-1.0708,-1.0714,-1.0724,-1.0728,-1.0733,-1.0706,-1.0703,-1.07,-1.0693,-1.073,-1.073,-1.076,-1.076,-1.076]}]]